Location: ?
(35.4064°N, 139.3593°E)
Time: 00:56:38
(UTC+00:00)

Hubble Space Telescope - Visible Passes

Search period start: 21 June 2024 00:00
Search period end: 01 July 2024 00:00
Orbit: 510 x 514 km, 28.5° (Epoch: 20 June)

Date Brightness Start Highest point End Pass type
(mag) Time Alt. Az. Time Alt. Az. Time Alt. Az.
27 Jun 2.3 18:46:53 10° SW 18:49:57 21° SSE 18:53:02 10° ESE visible
28 Jun 2.1 18:28:35 15° SSW 18:30:45 23° SSE 18:33:55 10° ESE visible
29 Jun 2.0 18:10:20 21° SSW 18:11:31 24° S 18:14:46 10° ESE visible
30 Jun 1.9 17:52:06 25° S 17:52:17 25° S 17:55:37 10° ESE visible
